EW9154 Weather Reports


time (UTC)temp
C
wind
direction
speed
KPH
gust
KPH
rain 1hr
cm
rain 24hr
cm
rain mn
cm
humidity
%
barometer
mb
20260831185147 34 259 0.0 0.0 0.00 0.00 0.00 47 1024.8
20260831184644 34 259 0.0 0.0 0.00 0.00 0.00 47 1024.8
20260831184144 34 269 0.0 0.0 0.00 0.00 0.00 48 1024.8
20260831183633 33 278 0.0 0.0 0.00 0.00 0.00 47 1024.6
20260831183131 33 249 0.0 0.0 0.00 0.00 0.00 48 1024.6
20260831182628 33 319 0.0 0.0 0.00 0.00 0.00 51 1024.8
20260831182113 33 320 0.0 0.0 0.00 0.00 0.00 54 1024.6
20260831181614 33 0 0.0 0.0 0.00 0.00 0.00 54 1024.6
20260831181050 33 9 0.0 0.0 0.00 0.00 0.00 55 1024.8
20260831180548 33 46 0.0 0.0 0.00 0.00 0.00 54 1024.8
20260831180047 32 80 0.0 0.0 0.00 0.00 0.00 55 1024.8
20260831175551 32 61 0.0 0.0 0.00 0.00 0.00 55 1024.9
20260831175028 32 59 0.0 0.0 0.00 0.00 0.00 58 1025.0
20260831174527 32 59 0.0 0.0 0.00 0.00 0.00 57 1025.1
20260831174005 31 229 0.0 0.0 0.00 0.00 0.00 61 1025.1
20260831173440 31 229 0.0 0.0 0.00 0.00 0.00 65 1025.1
20260831172939 31 229 0.0 0.0 0.00 0.00 0.00 66 1025.1
20260831172441 31 232 0.0 0.0 0.00 0.00 0.00 67 1025.2
20260831171919 31 217 0.0 0.0 0.00 0.00 0.00 68 1025.1
20260831171418 30 217 0.0 0.0 0.00 0.00 0.00 68 1025.1
20260831170854 30 211 0.0 0.0 0.00 0.00 0.00 69 1025.2
20260831170327 30 210 0.0 0.0 0.00 0.00 0.00 69 1025.2
20260831165812 30 262 0.0 0.0 0.00 0.00 0.00 68 1025.1
20260831165311 30 181 0.0 0.0 0.00 0.00 0.00 69 1025.1
20260831164812 30 133 0.0 0.0 0.00 0.00 0.00 69 1025.1
20260831164520 30 132 0.0 0.0 0.00 0.00 0.00 69 1025.0
20260831163724 30 143 0.0 0.0 0.00 0.00 0.00 69 1024.9
20260831163205 30 78 0.0 0.0 0.00 0.00 0.00 69 1024.9
20260831162639 30 248 0.0 0.0 0.00 0.00 0.00 70 1024.8
20260831162138 29 248 0.0 0.0 0.00 0.00 0.00 70 1024.8
20260831161618 29 236 0.0 0.0 0.00 0.00 0.00 72 1024.6
20260831161059 29 236 0.0 0.0 0.00 0.00 0.00 73 1024.4
20260831160538 28 236 0.0 0.0 0.00 0.00 0.00 74 1024.4
20260831160034 28 236 0.0 0.0 0.00 0.00 0.00 75 1024.5
20260831155536 28 236 0.0 0.0 0.00 0.00 0.00 75 1024.5
20260831155006 28 225 0.0 0.0 0.00 0.00 0.00 75 1024.6
20260831154505 28 252 0.0 0.0 0.00 0.00 0.00 76 1024.4
20260831154000 28 252 0.0 0.0 0.00 0.00 0.00 77 1024.5
20260831153450 28 252 0.0 0.0 0.00 0.00 0.00 79 1024.5
20260831153215 28 252 0.0 0.0 0.00 0.00 0.00 80 1024.5
20260831152441 27 252 0.0 0.0 0.00 0.00 0.00 81 1024.4
20260831151939 27 183 0.0 0.0 0.00 0.00 0.00 82 1024.4
20260831151440 27 183 0.0 0.0 0.00 0.00 0.00 82 1024.3
20260831150940 26 183 0.0 0.0 0.00 0.00 0.00 82 1024.4
20260831150417 26 224 0.0 0.0 0.00 0.00 0.00 84 1024.3
20260831145848 26 235 0.0 0.0 0.00 0.00 0.00 85 1024.3
20260831145349 26 235 0.0 0.0 0.00 0.00 0.00 85 1024.3
20260831144823 26 240 0.0 0.0 0.00 0.00 0.00 86 1024.1
20260831144301 25 263 0.0 0.0 0.00 0.00 0.00 88 1024.0
20260831143758 25 263 0.0 0.0 0.00 0.00 0.00 89 1023.9
20260831143533 25 257 0.0 0.0 0.00 0.00 0.00 89 1023.9
20260831143005 25 257 0.0 0.0 0.00 0.00 0.00 91 1023.7
20260831142504 24 257 0.0 0.0 0.00 0.00 0.00 91 1023.6
20260831141935 24 256 0.0 0.0 0.00 0.00 0.00 92 1023.6
20260831141202 24 256 0.0 0.0 0.00 0.00 0.00 92 1023.4
20260831140637 23 204 0.0 0.0 0.00 0.00 0.00 93 1023.5
20260831140133 23 254 0.0 0.0 0.00 0.00 0.00 93 1023.5
20260831135604 23 257 0.0 0.0 0.00 0.00 0.00 94 1023.4
20260831135103 23 257 0.0 0.0 0.00 0.00 0.00 94 1023.3
20260831134542 23 257 0.0 0.0 0.00 0.00 0.00 94 1023.3
20260831134041 23 234 0.0 0.0 0.00 0.00 0.00 94 1023.2
20260831133540 23 225 0.0 0.0 0.00 0.00 0.00 94 1023.2
20260831133311 22 225 0.0 0.0 0.00 0.00 0.00 94 1023.1
20260831132517 22 243 0.0 0.0 0.00 0.00 0.00 94 1022.9
20260831131948 22 242 0.0 0.0 0.00 0.00 0.00 94 1023.0
20260831131447 22 228 0.0 0.0 0.00 0.00 0.00 94 1023.0
20260831131153 22 233 0.0 3.2 0.00 0.00 0.00 94 1022.9
20260831130407 22 211 0.0 3.2 0.00 0.00 0.00 95 1022.8
20260831125906 22 219 0.0 0.0 0.00 0.00 0.00 95 1022.8
20260831125402 22 215 0.0 1.6 0.00 0.00 0.00 95 1022.7
20260831124901 22 197 0.0 1.6 0.00 0.00 0.00 95 1022.6
20260831124335 22 203 0.0 0.0 0.00 0.00 0.00 95 1022.5
20260831123804 22 207 0.0 0.0 0.00 0.00 0.00 95 1022.5
20260831123303 22 205 0.0 0.0 0.00 0.00 0.00 95 1022.6
20260831122742 22 213 0.0 3.2 0.00 0.00 0.00 95 1022.7
20260831122216 22 234 0.0 3.2 0.00 0.00 0.00 95 1022.5
20260831121715 22 215 0.0 3.2 0.00 0.00 0.00 95 1022.5
20260831121210 22 209 0.0 3.2 0.00 0.00 0.00 95 1022.2
20260831120645 22 217 0.0 1.6 0.00 0.00 0.00 95 1022.2
20260831120116 22 223 0.0 0.0 0.00 0.00 0.00 95 1022.4
20260831115609 22 202 0.0 0.0 0.00 0.00 0.00 94 1022.1
20260831115040 22 236 0.0 1.6 0.00 0.00 0.00 94 1022.0
20260831114536 22 238 0.0 1.6 0.00 0.00 0.00 94 1021.8
20260831114030 22 221 0.0 1.6 0.00 0.00 0.00 94 1021.8
20260831113529 22 221 0.0 3.2 0.00 0.00 0.00 94 1021.7
20260831113015 22 236 0.0 3.2 0.00 0.00 0.00 94 1021.8
20260831112515 22 229 0.0 3.2 0.00 0.00 0.00 94 1021.7
20260831111946 22 206 0.0 3.2 0.00 0.00 0.00 94 1021.6
20260831111421 22 238 0.0 1.6 0.00 0.00 0.00 94 1021.7
20260831110854 22 209 0.0 1.6 0.00 0.00 0.00 94 1021.5
20260831110354 22 213 0.0 6.4 0.00 0.00 0.00 94 1021.4
20260831105849 22 225 0.0 6.4 0.00 0.00 0.00 94 1021.3
20260831105625 22 208 0.0 6.4 0.00 0.00 0.00 94 1021.2
20260831104824 22 227 0.0 6.4 0.00 0.00 0.00 94 1021.2
20260831104323 22 223 0.0 3.2 0.00 0.00 0.00 94 1021.1
20260831104033 22 216 0.0 3.2 0.00 0.00 0.00 94 1021.2
20260831103300 22 225 0.0 8.0 0.00 0.00 0.00 94 1021.3
20260831102759 22 228 0.0 8.0 0.00 0.00 0.00 94 1021.3
20260831102305 22 207 1.6 12.9 0.00 0.00 0.00 94 1021.3
20260831102021 22 239 1.6 12.9 0.00 0.00 0.00 94 1021.3
20260831101252 22 240 0.0 9.7 0.00 0.00 0.00 94 1021.3
20260831100726 22 210 0.0 9.7 0.00 0.00 0.00 94 1021.2
20260831100158 22 228 0.0 8.0 0.00 0.00 0.00 94 1021.2
20260831095658 22 203 0.0 8.0 0.00 0.00 0.00 94 1021.2
20260831095146 22 227 0.0 4.8 0.00 0.00 0.00 94 1021.2
20260831094618 22 190 0.0 4.8 0.00 0.00 0.00 94 1021.0
20260831094114 22 215 0.0 4.8 0.00 0.00 0.00 94 1021.1
20260831093825 22 223 0.0 11.3 0.00 0.00 0.00 94 1021.2
20260831093020 22 229 0.0 11.3 0.00 0.00 0.00 94 1021.3
20260831092735 22 226 0.0 14.5 0.00 0.00 0.00 93 1021.2
20260831092007 22 216 0.0 14.5 0.00 0.00 0.00 93 1021.2
20260831091944 22 211 0.0 8.0 0.00 0.00 0.00 93 1021.2
20260831091438 22 214 0.0 8.0 0.00 0.00 0.00 93 1021.1
20260831090428 22 222 0.0 8.0 0.00 0.00 0.00 93 1021.1
20260831085928 22 213 0.0 6.4 0.00 0.00 0.00 93 1021.1
20260831085410 22 214 0.0 6.4 0.00 0.00 0.00 93 1021.0
20260831085142 22 206 0.0 3.2 0.00 0.00 0.00 93 1021.1
20260831084410 22 225 0.0 16.1 0.00 0.00 0.00 93 1021.1
20260831083900 22 214 0.0 16.1 0.00 0.00 0.00 92 1021.1
20260831083633 22 213 0.0 3.2 0.00 0.00 0.00 92 1021.1
20260831082837 22 226 0.0 11.3 0.00 0.00 0.00 92 1021.0
20260831082327 22 227 0.0 11.3 0.00 0.00 0.00 92 1021.0
20260831082059 22 242 0.0 11.3 0.00 0.00 0.00 92 1020.9
20260831081305 22 189 0.0 11.3 0.00 0.00 0.00 92 1020.8
20260831080805 23 229 0.0 9.7 0.00 0.00 0.00 92 1020.8
20260831080536 23 234 0.0 6.4 0.00 0.00 0.00 92 1020.9
20260831075805 23 246 0.0 4.8 0.00 0.00 0.00 92 1020.9
20260831075252 23 215 0.0 12.9 0.00 0.00 0.00 92 1020.9
20260831074727 23 235 0.0 11.3 0.00 0.00 0.00 92 1020.9
20260831074228 23 226 0.0 6.4 0.00 0.00 0.00 92 1020.9
20260831073727 22 234 0.0 6.4 0.00 0.00 0.00 91 1020.9
20260831073158 22 186 0.0 12.9 0.00 0.00 0.00 91 1020.8
20260831072634 22 182 0.0 12.9 0.00 0.00 0.00 91 1020.9
20260831072117 22 190 1.6 14.5 0.00 0.00 0.00 91 1020.8
20260831071614 22 236 1.6 14.5 0.00 0.00 0.00 91 1020.8
20260831071346 22 240 0.0 12.9 0.00 0.00 0.00 91 1021.0
20260831070839 22 202 0.0 12.9 0.00 0.00 0.00 91 1020.9
20260831070104 22 219 0.0 12.9 0.00 0.00 0.00 91 1021.1
20260831065602 22 177 1.6 12.9 0.00 0.00 0.00 91 1021.2
20260831065042 22 184 1.6 14.5 0.00 0.00 0.00 91 1021.2
20260831064535 22 206 1.6 14.5 0.00 0.00 0.00 91 1021.3
20260831064017 22 210 0.0 11.3 0.00 0.00 0.00 91 1021.4
20260831063521 22 196 1.6 12.9 0.00 0.00 0.00 91 1021.5
20260831063517 22 194 1.6 12.9 0.00 0.00 0.00 91 1021.4
20260831062456 22 190 0.0 12.9 0.00 0.00 0.00 91 1021.5
20260831061934 22 164 0.0 16.1 0.00 0.00 0.00 90 1021.6
20260831061404 22 181 0.0 16.1 0.00 0.00 0.00 90 1021.7
20260831060839 22 199 0.0 3.2 0.00 0.00 0.00 90 1021.7
20260831060321 22 231 0.0 9.7 0.00 0.00 0.00 90 1021.8
20260831060026 22 193 0.0 9.7 0.00 0.00 0.00 90 1021.9
20260831055237 22 180 0.0 8.0 0.00 0.00 0.00 90 1021.9
20260831054951 23 185 0.0 8.0 0.00 0.00 0.00 89 1021.9
20260831054714 23 180 0.0 8.0 0.00 0.00 0.00 89 1021.9
20260831053713 23 207 0.0 4.8 0.00 0.00 0.00 89 1022.0
20260831053153 23 189 0.0 9.7 0.00 0.00 0.00 89 1021.9
20260831052629 23 180 0.0 9.7 0.00 0.00 0.00 89 1022.1
20260831052114 23 197 0.0 0.0 0.00 0.00 0.00 89 1022.2
20260831051616 23 175 0.0 0.0 0.00 0.00 0.00 89 1022.2
20260831051046 23 181 0.0 3.2 0.00 0.00 0.00 88 1022.2
20260831050549 23 185 0.0 3.2 0.00 0.00 0.00 88 1022.4
20260831050023 23 194 0.0 9.7 0.00 0.00 0.00 88 1022.5
20260831045503 23 215 0.0 3.2 0.00 0.00 0.00 88 1022.5
20260831044934 23 213 0.0 11.3 0.00 0.00 0.00 88 1022.4
20260831044434 23 198 0.0 11.3 0.00 0.00 0.00 88 1022.5
20260831043907 23 186 0.0 11.3 0.00 0.00 0.00 88 1022.5
20260831043404 23 166 0.0 8.0 0.00 0.00 0.00 88 1022.5
20260831042907 23 184 0.0 8.0 0.00 0.00 0.00 88 1022.6
20260831042403 23 188 0.0 9.7 0.00 0.00 0.00 88 1022.6
20260831041904 23 188 0.0 9.7 0.00 0.00 0.00 88 1022.5
20260831041611 23 210 0.0 11.3 0.00 0.00 0.00 88 1022.5
20260831040835 23 179 0.0 11.3 0.00 0.00 0.00 88 1022.5
20260831040308 23 194 0.0 3.2 0.00 0.00 0.00 87 1022.5
20260831035804 23 192 0.0 8.0 0.00 0.00 0.00 87 1022.5
20260831035306 23 194 0.0 8.0 0.00 0.00 0.00 87 1022.4
20260831034803 23 185 0.0 8.0 0.00 0.00 0.00 87 1022.4
20260831034243 23 184 0.0 12.9 0.00 0.00 0.00 87 1022.5
20260831033732 23 179 0.0 12.9 0.00 0.00 0.00 87 1022.5
20260831033231 23 254 1.6 24.1 0.00 0.00 0.00 87 1022.4
20260831032706 23 186 1.6 24.1 0.00 0.00 0.00 87 1022.6
20260831032415 23 177 1.6 19.3 0.00 0.00 0.00 86 1022.5
20260831031850 23 236 1.6 19.3 0.00 0.00 0.00 86 1022.5
20260831031056 23 188 0.0 11.3 0.00 0.00 0.00 86 1022.5
20260831030558 23 221 0.0 11.3 0.00 0.00 0.00 85 1022.5
20260831030031 23 175 0.0 6.4 0.00 0.00 0.00 85 1022.4
20260831025508 23 213 0.0 9.7 0.00 0.00 0.00 84 1022.1
20260831025222 24 211 0.0 12.9 0.00 0.00 0.00 84 1022.1
20260831024425 24 148 0.0 12.9 0.00 0.00 0.00 84 1022.2
20260831023927 24 247 0.0 8.0 0.00 0.00 0.00 83 1022.5
20260831023419 24 211 0.0 8.0 0.00 0.00 0.00 82 1022.4
20260831022859 24 186 0.0 9.7 0.00 0.00 0.00 82 1022.4
20260831022329 24 199 0.0 9.7 0.00 0.00 0.00 82 1022.4
20260831021829 25 186 0.0 12.9 0.00 0.00 0.00 81 1022.4
20260831021301 25 186 1.6 12.9 0.00 0.00 0.00 81 1022.4
20260831020745 25 200 0.0 9.7 0.00 0.00 0.00 80 1022.5
20260831020249 25 206 0.0 12.9 0.00 0.00 0.00 80 1022.6
20260831015720 25 194 1.6 12.9 0.00 0.00 0.00 80 1022.6
20260831015217 25 204 0.0 11.3 0.00 0.00 0.00 79 1022.6
20260831014649 25 144 0.0 3.2 0.00 0.00 0.00 79 1022.6
20260831014403 25 206 0.0 4.8 0.00 0.00 0.00 78 1022.6
20260831013632 25 186 0.0 4.8 0.00 0.00 0.00 78 1022.6
20260831013128 25 252 0.0 14.5 0.00 0.00 0.00 78 1022.6
20260831012600 26 213 0.0 14.5 0.00 0.00 0.00 77 1022.4
20260831012032 26 192 0.0 14.5 0.00 0.00 0.00 76 1022.4
20260831011506 26 214 1.6 14.5 0.00 0.00 0.00 75 1022.2
20260831010936 26 180 1.6 16.1 0.00 0.00 0.00 74 1022.2
20260831010435 26 198 1.6 16.1 0.00 0.00 0.00 73 1022.1
20260831005921 26 132 0.0 17.7 0.00 0.00 0.00 72 1022.1
20260831005353 27 224 0.0 17.7 0.00 0.00 0.00 71 1021.8
20260831004852 27 182 1.6 9.7 0.00 0.00 0.00 69 1021.7
20260831004327 27 161 3.2 25.7 0.00 0.00 0.00 68 1021.8
20260831003825 27 172 1.6 25.7 0.00 0.00 0.00 67 1021.8
20260831003556 28 229 0.0 1.6 0.00 0.00 0.00 68 1022.0
20260831003140 28 183 0.0 0.0 0.00 0.00 0.00 68 1021.8
20260831003032 28 182 0.0 12.9 0.00 0.00 0.00 67 1021.7
20260831001757 28 203 0.0 12.9 0.00 0.00 0.00 67 1021.6
20260831001229 28 188 0.0 0.0 0.00 0.00 0.00 66 1021.5
20260831000728 28 189 0.0 4.8 0.00 0.00 0.00 66 1021.4
20260831000204 28 209 0.0 4.8 0.00 0.00 0.00 65 1021.4
20260830235636 28 192 0.0 12.9 0.00 0.00 0.00 65 1021.3
20260830235408 28 207 0.0 12.9 0.00 0.00 0.00 65 1021.4
20260830234609 29 163 0.0 9.7 0.00 0.00 0.00 66 1021.3
20260830234042 29 186 0.0 6.4 0.00 0.00 0.00 65 1021.3
20260830233539 29 117 0.0 3.2 0.00 0.00 0.00 66 1021.4
20260830233019 29 115 0.0 3.2 0.00 0.00 0.00 65 1021.4
20260830232516 30 136 0.0 11.3 0.00 0.00 0.00 65 1021.4
20260830232013 30 121 0.0 11.3 0.00 0.00 0.00 65 1021.4
20260830231742 30 196 0.0 9.7 0.00 0.00 0.00 64 1021.4
20260830230948 30 190 0.0 9.7 0.00 0.00 0.00 66 1021.4
20260830230943 30 159 0.0 1.6 0.00 0.00 0.00 66 1021.4
20260830225929 30 142 0.0 9.7 0.00 0.00 0.00 65 1021.4
20260830225426 30 105 1.6 17.7 0.00 0.00 0.00 65 1021.4
20260830224901 30 196 1.6 19.3 0.00 0.00 0.00 64 1021.4
20260830224337 30 205 0.0 6.4 0.00 0.00 0.00 63 1021.4
20260830223807 31 125 0.0 3.2 0.00 0.00 0.00 63 1021.3
20260830223307 31 129 0.0 4.8 0.00 0.00 0.00 64 1021.2
20260830223019 31 126 0.0 6.4 0.00 0.00 0.00 65 1021.1
20260830222253 31 148 0.0 6.4 0.00 0.00 0.00 65 1021.1
20260830221726 31 114 0.0 4.8 0.00 0.00 0.00 63 1021.1
20260830221211 31 82 0.0 4.8 0.00 0.00 0.00 63 1021.2
20260830220716 31 148 0.0 4.8 0.00 0.00 0.00 62 1021.2
20260830220147 32 158 0.0 4.8 0.00 0.00 0.00 61 1021.3
20260830215643 32 113 0.0 6.4 0.00 0.00 0.00 61 1021.3
20260830215119 32 112 0.0 6.4 0.00 0.00 0.00 58 1021.2
20260830214551 32 112 0.0 4.8 0.00 0.00 0.00 59 1021.2
20260830214048 32 127 0.0 3.2 0.00 0.00 0.00 61 1021.3
20260830213546 32 109 0.0 3.2 0.00 0.00 0.00 61 1021.3
20260830213043 31 88 0.0 8.0 0.00 0.00 0.00 62 1021.3
20260830212540 31 94 0.0 8.0 0.00 0.00 0.00 65 1021.1
20260830212018 30 106 0.0 14.5 0.00 0.00 0.00 68 1021.2
20260830211515 31 63 0.0 14.5 0.00 0.00 0.00 64 1021.4
20260830211455 31 36 0.0 11.3 0.00 0.00 0.00 66 1021.4
20260830210421 31 94 1.6 11.3 0.00 0.00 0.00 66 1021.4
20260830205920 31 105 1.6 8.0 0.00 0.00 0.00 67 1021.5
20260830205358 30 348 1.6 8.0 0.00 0.00 0.00 67 1021.6
20260830204901 30 130 1.6 14.5 0.00 0.00 0.00 69 1021.6
20260830204333 30 105 1.6 14.5 0.00 0.00 0.00 69 1021.6
20260830203831 30 116 1.6 11.3 0.00 0.00 0.00 69 1021.7
20260830203323 30 90 0.0 11.3 0.00 0.00 0.00 69 1021.8
20260830202822 30 132 1.6 19.3 0.00 0.00 0.00 69 1021.9
20260830202306 30 138 1.6 19.3 0.00 0.00 0.00 68 1022.0
20260830201805 30 82 0.0 8.0 0.00 0.00 0.00 68 1021.9
20260830201302 31 97 0.0 4.8 0.00 0.00 0.00 66 1022.0
20260830201008 31 119 0.0 9.7 0.00 0.00 0.00 66 1022.1
20260830200210 30 117 0.0 11.3 0.00 0.00 0.00 69 1022.1
20260830195914 30 105 0.0 11.3 0.00 0.00 0.00 69 1022.0
20260830195127 29 161 0.0 6.4 0.00 0.00 0.00 70 1022.0
20260830194630 29 55 0.0 1.6 0.00 0.00 0.00 69 1021.9
20260830194125 29 96 0.0 3.2 0.00 0.00 0.00 69 1022.1
20260830193623 30 99 0.0 3.2 0.00 0.00 0.00 68 1022.2
20260830193327 30 78 0.0 8.0 0.00 0.00 0.00 67 1022.1
20260830192553 29 124 0.0 8.0 0.00 0.00 0.00 70 1022.2
20260830192025 29 5 0.0 4.8 0.00 0.00 0.00 69 1022.1
20260830191515 29 97 0.0 4.8 0.00 0.00 0.00 70 1021.9
20260830191014 29 74 0.0 4.8 0.00 0.00 0.00 69 1022.0
20260830190513 30 88 0.0 3.2 0.00 0.00 0.00 68 1022.0
20260830190014 29 94 0.0 3.2 0.00 0.00 0.00 71 1022.1